[[{"header":{"parameterUnit":"m.s-1","parameterCategory":2,"la1":30.2991,"la2":30.254,"lo1":-89.0895,"lo2":-89.0444,"dy":0.0017,"dx":0.0017,"nx":28,"ny":28,"refTime":"2023-09-26T03:00:00:Z","depth":"0","parameterNumber":2,"parameterNumberName":"U-component_of_CURRENTS"},"data":[0,0,0,0,0,0,0,0,0,0,0,0,0,0,0,0,0,0,0,0,0,0,0,0,0,0,0,0,0,0,0,0,0,0,0,0,0,0,0,0,0,0,0,0,0,0,0,0,0,0,0,0,0,0,0,0,0,0,-0.2737,-0.2737,0,-0.2713,-0.2712,-0.2712,-0.2689,-0.2689,-0.2689,-0.2689,-0.2634,-0.2632,-0.2631,0,0,0,0,0,0,0,0,0,0,0,0,0,-0.2756,-0.2755,-0.2737,-0.2737,-0.2737,-0.2713,-0.2712,-0.2712,-0.2689,-0.2689,-0.2689,-0.2689,-0.2634,-0.2632,-0.2631,0,0,0,0,0,0,0,0,0,0,0,0,0,-0.2739,-0.2755,-0.2737,-0.2724,-0.2723,-0.2713,-0.2712,-0.2712,-0.2689,-0.2689,-0.2689,-0.2689,-0.2635,-0.2633,-0.263,-0.2621,0,0,-0.2624,-0.2623,0,0,0,0,0,0,0,0,-0.274,-0.2738,-0.2726,-0.2725,-0.2723,-0.2705,-0.2699,-0.268,-0.2689,-0.27,-0.2689,-0.2689,-0.2656,-0.2652,-0.2646,-0.2619,-0.2616,-0.2624,-0.2623,-0.2622,-0.2621,0,0,0,0,0,0,0,-0.2741,-0.2739,-0.2725,-0.2726,-0.2724,-0.2717,-0.2714,-0.2695,-0.2677,-0.2699,-0.2698,-0.2698,-0.2655,-0.2648,-0.2644,-0.2615,-0.2624,-0.2622,-0.2621,-0.262,-0.26,-0.2601,0,0,0,0,0,0,-0.2749,-0.274,-0.2726,-0.2725,-0.2734,-0.2717,-0.2714,-0.271,-0.2678,-0.2674,-0.2698,-0.2697,-0.2651,-0.2647,-0.2642,-0.2667,-0.2622,-0.262,-0.2619,-0.2599,-0.26,-0.2601,0,0,0,0,0,0,-0.2749,-0.2748,-0.2727,-0.2734,-0.2731,-0.2717,-0.2713,-0.2709,-0.2702,-0.2678,-0.2673,-0.2694,-0.2651,-0.2645,-0.2631,-0.2663,-0.2619,-0.2617,-0.2599,-0.26,-0.2601,-0.2693,0,0,0,0,0,0,-0.275,-0.2748,-0.2744,-0.2734,-0.2731,-0.2732,-0.2713,-0.2709,-0.2703,-0.2701,-0.2673,-0.2668,-0.2651,-0.2634,-0.2629,-0.266,-0.2616,-0.2598,-0.2599,-0.26,-0.2689,-0.2697,-0.2704,0,0,0,0,0,-0.275,-0.2739,-0.2743,-0.2742,-0.2727,-0.2733,-0.2731,-0.2719,-0.2703,-0.2709,-0.2686,-0.2668,-0.2639,-0.2633,-0.2627,-0.2658,-0.2597,-0.2599,-0.26,-0.2685,-0.2695,-0.2703,0,0,0,0,0,0,-0.274,-0.2736,-0.274,-0.2728,-0.274,-0.273,-0.2721,-0.272,-0.2705,-0.2693,-0.2671,-0.2665,-0.2666,-0.2642,-0.2636,-0.2654,-0.2618,-0.2618,-0.2685,-0.2693,-0.2701,-0.2707,-0.2614,0,0,0,0,0,-0.2739,-0.2727,-0.274,-0.2728,-0.2733,-0.273,-0.2727,-0.2726,-0.2714,-0.2706,-0.2692,-0.2673,-0.2668,-0.2664,-0.2649,-0.2654,-0.2651,-0.267,-0.2677,-0.2684,-0.2684,-0.2711,-0.2722,-0.2606,-0.2606,-0.2606,0,0,-0.2725,-0.2726,-0.2715,-0.2726,-0.2723,-0.2749,-0.2726,-0.2723,-0.2749,-0.2702,-0.2714,-0.2692,-0.2672,-0.2684,-0.2684,-0.267,-0.2719,-0.2686,-0.2692,-0.2688,-0.2714,-0.2725,-0.2736,-0.2607,-0.2607,-0.2607,0,0,-0.2706,-0.2701,-0.2695,-0.272,-0.2733,-0.2742,-0.2747,-0.2751,-0.2756,-0.2767,-0.2745,-0.2747,-0.2728,-0.2737,-0.2735,-0.2771,-0.2753,-0.276,-0.281,-0.2837,-0.2847,-0.2856,-0.2888,-0.2898,-0.2769,-0.277,-0.277,0,-0.2695,-0.2704,-0.2697,-0.2723,-0.2751,-0.2747,-0.278,-0.2788,-0.2791,-0.2805,-0.2781,-0.2783,-0.2763,-0.2801,-0.2809,-0.2793,-0.2795,-0.2783,-0.2849,-0.2858,-0.2865,-0.2895,-0.2906,-0.2774,-0.2774,-0.2773,-0.2773,0,-0.2691,-0.2716,-0.2716,-0.2756,-0.2784,-0.2805,-0.2839,-0.2857,-0.2859,-0.2873,-0.2899,-0.2877,-0.2881,-0.2883,-0.2852,-0.29,-0.2881,-0.2855,-0.2833,-0.2883,-0.2911,-0.2921,-0.2781,-0.2779,-0.2778,-0.2777,0,0,-0.263,-0.2701,-0.2706,-0.2754,-0.2812,-0.2836,-0.2886,-0.2939,-0.2967,-0.2977,-0.302,-0.3019,-0.2997,-0.2992,-0.2967,-0.2986,-0.3044,-0.2937,-0.2936,-0.298,-0.3105,-0.3041,-0.3046,-0.3024,-0.3026,-0.3027,-0.3111,0,-0.2638,-0.2698,-0.2738,-0.2817,-0.286,-0.291,-0.2957,-0.3004,-0.3028,-0.3063,-0.3071,-0.3081,-0.3045,-0.3034,-0.3057,-0.3029,-0.3069,-0.3024,-0.3038,-0.3039,-0.2986,-0.3054,-0.2741,-0.2784,-0.312,-0.3122,-0.3123,0,-0.2628,-0.2683,-0.2751,-0.2868,-0.289,-0.2937,-0.3024,-0.3069,-0.3125,-0.3137,-0.3168,-0.3154,-0.3183,-0.3133,-0.3167,-0.3133,-0.3129,-0.3119,-0.3122,-0.3033,-0.2993,-0.2782,-0.2788,-0.2695,-0.3137,-0.3136,-0.3135,0,-0.258,-0.2699,-0.2755,-0.2797,-0.2912,-0.2957,-0.3016,-0.3083,-0.3124,-0.3176,-0.3196,-0.323,-0.3231,-0.3242,-0.3221,-0.3188,-0.3257,-0.3216,-0.3177,-0.3173,-0.2894,-0.2862,-0.2813,-0.3266,-0.3266,-0.3266,-0.3266,0,-0.2566,-0.2617,-0.2742,-0.2771,-0.2861,-0.2944,-0.3013,-0.3072,-0.3142,-0.3181,-0.3219,-0.3245,-0.325,-0.3283,-0.3266,-0.3256,-0.3306,-0.3201,-0.3194,-0.2918,-0.2889,-0.2783,-0.2809,-0.3269,-0.3268,-0.3268,-0.3267,0,-0.248,-0.2557,-0.2644,-0.2781,-0.283,-0.2887,-0.3017,-0.3056,-0.3127,-0.3181,-0.3194,-0.3263,-0.3294,-0.3327,-0.3344,-0.3302,-0.3213,-0.3298,-0.2981,-0.2934,-0.2775,-0.2819,-0.2839,-0.2781,-0.3252,-0.3251,-0.325,0,-0.243,-0.2458,-0.2626,-0.2682,-0.2743,-0.2844,-0.29,-0.3021,-0.3069,-0.3179,-0.3199,-0.3265,-0.3277,-0.332,-0.3215,-0.3201,-0.3204,-0.2957,-0.2839,-0.2741,-0.2786,-0.283,-0.2783,-0.2513,-0.2506,-0.2501,-0.2496,0,-0.2343,-0.2399,-0.2475,-0.2583,-0.2669,-0.2753,-0.2853,-0.2897,-0.3013,-0.3062,-0.312,-0.3142,-0.3154,-0.296,-0.2952,-0.2914,-0.2796,-0.2845,-0.2796,-0.226,-0.2248,-0.2193,-0.2517,-0.2446,-0.2451,-0.2455,-0.2458,-0.246,-0.2266,-0.2302,-0.2388,-0.2478,-0.256,-0.2596,-0.2582,-0.2684,-0.2721,-0.2693,-0.2873,-0.2766,-0.2653,-0.2554,-0.254,-0.228,-0.2503,-0.2146,-0.223,-0.2304,-0.217,-0.2417,-0.2312,-0.2316,-0.2319,-0.2322,-0.2325,0,-0.2153,-0.2198,-0.2275,-0.2344,-0.2325,-0.2425,-0.248,-0.2406,-0.2352,-0.2375,-0.2341,-0.2128,-0.1936,-0.1895,-0.1664,-0.1601,-0.1579,-0.1631,-0.1547,-0.155,-0.1748,-0.1628,-0.1301,-0.1301,-0.1302,-0.1302,-0.1302,-0.1302,-0.2092,-0.2105,-0.2141,-0.2068,-0.2087,-0.1972,-0.194,-0.188,-0.1838,-0.1657,-0.1506,-0.1467,-0.1463,-0.1394,-0.1215,-0.1177,-0.1203,-0.1172,-0.1392,-0.1413,-0.1465,-0.1514,-0.14,-0.1032,-0.1032,-0.0978,-0.0978,-0.0978]},{"header":{"parameterUnit":"m.s-1","parameterCategory":2,"la1":30.2991,"la2":30.254,"lo1":-89.0895,"lo2":-89.0444,"dy":0.0017,"dx":0.0017,"nx":28,"ny":28,"refTime":"2023-09-26T03:00:00:Z","depth":"0","parameterNumber":3,"parameterNumberName":"V-component_of_CURRENTS"},"data":[0,0,0,0,0,0,0,0,0,0,0,0,0,0,0,0,0,0,0,0,0,0,0,0,0,0,0,0,0,0,0,0,0,0,0,0,0,0,0,0,0,0,0,0,0,0,0,0,0,0,0,0,0,0,0,0,0,0,-0.0546,-0.0545,0,-0.0391,-0.0389,-0.0387,-0.0283,-0.0282,-0.0282,-0.0282,-0.0085,-0.008,-0.0075,0,0,0,0,0,0,0,0,0,0,0,0,0,-0.0686,-0.0685,-0.0546,-0.0544,-0.0543,-0.0391,-0.0389,-0.0386,-0.0283,-0.0282,-0.0282,-0.0281,-0.0086,-0.008,-0.0075,0,0,0,0,0,0,0,0,0,0,0,0,0,-0.0585,-0.0684,-0.0546,-0.0475,-0.0468,-0.0392,-0.0389,-0.0386,-0.0283,-0.0282,-0.0282,-0.0281,-0.0088,-0.0081,-0.0074,-0.0041,0,0,-0.0051,-0.0048,0,0,0,0,0,0,0,0,-0.0591,-0.0579,-0.0487,-0.048,-0.0471,-0.0358,-0.0366,-0.0269,-0.0283,-0.035,-0.0282,-0.0281,-0.0175,-0.016,-0.0128,-0.0032,-0.0023,-0.0051,-0.0046,-0.0043,-0.0041,0,0,0,0,0,0,0,-0.0598,-0.0585,-0.0481,-0.0486,-0.0476,-0.0429,-0.0414,-0.0347,-0.0264,-0.0344,-0.0337,-0.0325,-0.017,-0.0136,-0.0123,-0.0021,-0.0051,-0.0045,-0.004,-0.0037,0.0115,0.0115,0,0,0,0,0,0,-0.0628,-0.0592,-0.0486,-0.0477,-0.0535,-0.0427,-0.041,-0.0393,-0.0266,-0.0247,-0.0326,-0.0321,-0.0149,-0.0132,-0.0116,-0.008,-0.0043,-0.0037,-0.0032,0.0115,0.0115,0.0115,0,0,0,0,0,0,-0.0631,-0.062,-0.0492,-0.0534,-0.0515,-0.0426,-0.0407,-0.039,-0.0357,-0.0253,-0.0233,-0.031,-0.0147,-0.0126,-0.006,-0.0071,-0.0033,-0.0027,0.0116,0.0115,0.0115,-0.0002,0,0,0,0,0,0,-0.0636,-0.0622,-0.0615,-0.0536,-0.0514,-0.0459,-0.0407,-0.0388,-0.0352,-0.0344,-0.0233,-0.0214,-0.0145,-0.0072,-0.0053,-0.0061,-0.0021,0.0116,0.0116,0.0115,0.0002,-0.0007,-0.0014,0,0,0,0,0,-0.0641,-0.0633,-0.0616,-0.0603,-0.0509,-0.046,-0.0444,-0.0377,-0.0352,-0.0343,-0.0268,-0.0217,-0.0062,-0.0066,-0.0044,-0.005,0.0117,0.0116,0.0115,0.0006,-0.0005,-0.0014,0,0,0,0,0,0,-0.068,-0.062,-0.0599,-0.057,-0.0529,-0.0444,-0.0426,-0.0387,-0.032,-0.0312,-0.0215,-0.019,-0.0139,-0.0078,-0.0085,-0.0008,0.0033,0.0036,-0.0058,-0.0067,-0.0075,-0.0105,-0.0015,0,0,0,0,0,-0.0693,-0.0674,-0.0615,-0.0593,-0.0579,-0.0509,-0.048,-0.0441,-0.0374,-0.0343,-0.0268,-0.019,-0.0124,-0.0085,-0.0017,0.0028,0.0038,0.0037,0.0029,0.0022,0.0012,0.0011,0.0001,0.0112,0.0112,0.0112,0,0,-0.07,-0.0666,-0.0653,-0.0601,-0.0562,-0.0548,-0.0488,-0.0457,-0.0437,-0.0333,-0.0281,-0.0215,-0.0119,-0.007,-0.0042,-0.002,-0.0011,0.0021,0.0014,0.0008,0.0009,-0.0002,-0.0012,0.0112,0.0112,0.0112,0,0,-0.0717,-0.0683,-0.0681,-0.0661,-0.062,-0.0577,-0.0578,-0.0509,-0.047,-0.0419,-0.0344,-0.0291,-0.0181,-0.0123,-0.0077,-0.009,-0.0056,-0.0065,-0.0125,-0.0126,-0.0136,-0.0145,-0.0182,-0.0192,-0.0067,-0.0067,-0.0067,0,-0.0731,-0.0722,-0.0673,-0.0677,-0.0665,-0.0602,-0.0607,-0.056,-0.0476,-0.0453,-0.042,-0.029,-0.0209,-0.0157,-0.0155,-0.011,-0.0118,-0.0099,-0.0141,-0.0149,-0.0155,-0.019,-0.0201,-0.0073,-0.0072,-0.0072,-0.0071,0,-0.0754,-0.0754,-0.0755,-0.074,-0.0719,-0.0716,-0.0661,-0.0631,-0.0583,-0.0539,-0.0485,-0.0385,-0.0312,-0.0279,-0.0211,-0.0212,-0.0208,-0.0159,-0.0127,-0.0175,-0.0208,-0.0217,-0.0081,-0.0079,-0.0077,-0.0076,0,0,-0.0766,-0.0772,-0.0774,-0.0792,-0.0759,-0.0745,-0.0721,-0.0683,-0.0678,-0.0605,-0.0599,-0.0484,-0.0446,-0.0392,-0.0315,-0.0304,-0.0358,-0.0256,-0.0254,-0.0313,-0.0399,-0.0254,-0.025,-0.0322,-0.0323,-0.0324,-0.0417,0,-0.0803,-0.084,-0.082,-0.0851,-0.0869,-0.082,-0.0803,-0.0762,-0.0718,-0.0697,-0.0616,-0.0577,-0.0484,-0.046,-0.0436,-0.0363,-0.0381,-0.0339,-0.0325,-0.0326,-0.0206,-0.0254,-0.0144,-0.0204,-0.0425,-0.0427,-0.0428,0,-0.083,-0.0858,-0.0902,-0.0922,-0.0923,-0.0925,-0.0905,-0.0882,-0.0837,-0.0807,-0.0768,-0.0707,-0.0662,-0.0589,-0.0532,-0.0512,-0.0475,-0.0433,-0.0434,-0.026,-0.0195,-0.0181,-0.0211,-0.0058,-0.0441,-0.044,-0.0439,0,-0.0871,-0.091,-0.0951,-0.0961,-0.0969,-0.0972,-0.0961,-0.092,-0.0918,-0.089,-0.0903,-0.0833,-0.0812,-0.0746,-0.0626,-0.0597,-0.0586,-0.0533,-0.0388,-0.038,-0.026,-0.0237,-0.015,-0.0538,-0.0538,-0.0538,-0.0538,0,-0.0913,-0.0949,-0.0982,-0.1012,-0.1058,-0.1032,-0.1062,-0.1037,-0.103,-0.1059,-0.0972,-0.0982,-0.0851,-0.0807,-0.0702,-0.0562,-0.0649,-0.0415,-0.0386,-0.0297,-0.0277,-0.0112,-0.007,-0.0541,-0.0541,-0.054,-0.0539,0,-0.0946,-0.0967,-0.1033,-0.1073,-0.1083,-0.1116,-0.114,-0.1164,-0.1142,-0.1186,-0.1189,-0.1123,-0.1029,-0.0897,-0.0795,-0.0652,-0.0429,-0.0481,-0.0393,-0.0347,0.0,0.0031,0.0112,0.0199,-0.0334,-0.0331,-0.0328,0,-0.0961,-0.1002,-0.1089,-0.113,-0.1153,-0.1195,-0.1222,-0.1219,-0.1258,-0.1266,-0.1305,-0.1228,-0.114,-0.0916,-0.0645,-0.044,-0.0352,-0.0239,-0.0124,0.0031,0.0083,0.0091,0.0157,-0.0055,-0.005,-0.0046,-0.0043,0,-0.1006,-0.1044,-0.1109,-0.1194,-0.1249,-0.1308,-0.1358,-0.1406,-0.1413,-0.144,-0.1438,-0.1363,-0.1079,-0.0735,-0.0419,-0.0285,-0.0075,-0.0147,-0.0017,0.0294,0.0331,0.0426,-0.0042,-0.0009,-0.0012,-0.0015,-0.0017,-0.0018,-0.1039,-0.1106,-0.1188,-0.126,-0.1327,-0.1398,-0.1431,-0.1484,-0.1535,-0.1516,-0.1479,-0.1249,-0.0771,-0.0251,-0.0119,0.0306,0.0206,0.0444,0.045,0.0428,0.0594,0.0211,0.0323,0.0322,0.0321,0.0319,0.0318,0,-0.1077,-0.1149,-0.1232,-0.1331,-0.1396,-0.1411,-0.1497,-0.1508,-0.1548,-0.1439,-0.1354,-0.0729,-0.0264,0.0163,0.0716,0.0895,0.0897,0.0954,0.0969,0.0995,0.0635,0.0741,0.0989,0.0989,0.0988,0.0988,0.0988,0.0988,-0.1099,-0.1198,-0.1248,-0.1356,-0.1406,-0.1458,-0.1488,-0.15,-0.1408,-0.1123,-0.0733,-0.0413,0.0172,0.0881,0.1317,0.1343,0.1439,0.1429,0.1445,0.12,0.1152,0.1106,0.1219,0.1563,0.1564,0.1833,0.1836,0.1838]}],[{"header":{"parameterUnit":"m.s-1","parameterCategory":2,"la1":30.2991,"la2":30.254,"lo1":-89.0895,"lo2":-89.0444,"dy":0.0017,"dx":0.0017,"nx":28,"ny":28,"refTime":"2023-09-26T03:00:00:Z","depth":"2","parameterNumber":2,"parameterNumberName":"U-component_of_CURRENTS"},"data":[0,0,0,0,0,0,0,0,0,0,0,0,0,0,0,0,0,0,0,0,0,0,0,0,0,0,0,0,0,0,0,0,0,0,0,0,0,0,0,0,0,0,0,0,0,0,0,0,0,0,0,0,0,0,0,0,0,0,-0.2472,-0.2473,0,-0.2511,-0.2512,-0.2512,-0.2525,-0.2525,-0.2526,-0.2526,-0.25,-0.2499,-0.2499,0,0,0,0,0,0,0,0,0,0,0,0,0,-0.2399,-0.24,-0.2472,-0.2473,-0.2474,-0.2511,-0.2512,-0.2512,-0.2525,-0.2525,-0.2526,-0.2526,-0.25,-0.25,-0.2499,0,0,0,0,0,0,0,0,0,0,0,0,0,-0.2431,-0.2401,-0.2472,-0.2487,-0.2489,-0.2511,-0.2512,-0.2512,-0.2525,-0.2525,-0.2526,-0.2526,-0.2501,-0.25,-0.2498,-0.2487,0,0,-0.2495,-0.2494,0,0,0,0,0,0,0,0,-0.2429,-0.2433,-0.2484,-0.2486,-0.2489,-0.2517,-0.2477,-0.2501,-0.2525,-0.2508,-0.2526,-0.2526,-0.2502,-0.25,-0.2504,-0.2485,-0.2484,-0.2495,-0.2494,-0.2493,-0.2493,0,0,0,0,0,0,0,-0.2427,-0.2431,-0.2484,-0.2485,-0.2488,-0.2489,-0.2494,-0.2482,-0.2499,-0.251,-0.2511,-0.2521,-0.2502,-0.2505,-0.2503,-0.2484,-0.2495,-0.2494,-0.2493,-0.2492,-0.2468,-0.2468,0,0,0,0,0,0,-0.2429,-0.2429,-0.2483,-0.2486,-0.2462,-0.2491,-0.2496,-0.2505,-0.2501,-0.2502,-0.2521,-0.2522,-0.2507,-0.2504,-0.2502,-0.2463,-0.2493,-0.2492,-0.2491,-0.2468,-0.2468,-0.2468,0,0,0,0,0,0,-0.2427,-0.2433,-0.2482,-0.2461,-0.2468,-0.2492,-0.2502,-0.2505,-0.2512,-0.2511,-0.251,-0.2525,-0.2507,-0.2504,-0.2499,-0.2463,-0.2492,-0.2491,-0.2468,-0.2468,-0.2468,-0.2401,0,0,0,0,0,0,-0.2425,-0.2432,-0.244,-0.2461,-0.2469,-0.2465,-0.2502,-0.2506,-0.2519,-0.252,-0.2514,-0.2512,-0.2507,-0.2501,-0.2498,-0.2462,-0.249,-0.2468,-0.2468,-0.2468,-0.2403,-0.2399,-0.2395,0,0,0,0,0,-0.2422,-0.2412,-0.244,-0.2447,-0.2479,-0.2464,-0.2466,-0.2483,-0.2519,-0.2496,-0.2522,-0.2512,-0.25,-0.25,-0.2497,-0.2459,-0.2467,-0.2468,-0.2468,-0.2405,-0.24,-0.2395,0,0,0,0,0,0,-0.2393,-0.2414,-0.2444,-0.2447,-0.245,-0.2467,-0.246,-0.2485,-0.249,-0.2505,-0.2514,-0.2512,-0.2484,-0.2498,-0.2499,-0.2458,-0.2481,-0.2481,-0.2435,-0.243,-0.2426,-0.2433,-0.2489,0,0,0,0,0,-0.2392,-0.2385,-0.2411,-0.2413,-0.2416,-0.2447,-0.2451,-0.2464,-0.2476,-0.248,-0.2493,-0.2504,-0.2482,-0.2479,-0.2465,-0.2451,-0.2493,-0.2429,-0.2425,-0.2421,-0.2427,-0.2473,-0.2473,-0.2469,-0.2469,-0.2469,0,0,-0.2377,-0.2396,-0.239,-0.2405,-0.2419,-0.2413,-0.2447,-0.2445,-0.244,-0.2475,-0.248,-0.2481,-0.2475,-0.2448,-0.2438,-0.2456,-0.2446,-0.2421,-0.2417,-0.2426,-0.2473,-0.2473,-0.2474,-0.2469,-0.2469,-0.2469,0,0,-0.2347,-0.2367,-0.2355,-0.2354,-0.2375,-0.2386,-0.2387,-0.2413,-0.2417,-0.2425,-0.244,-0.2426,-0.2432,-0.2403,-0.2391,-0.2362,-0.2414,-0.2372,-0.2361,-0.2403,-0.2404,-0.2405,-0.2462,-0.2469,-0.238,-0.238,-0.238,0,-0.2344,-0.2342,-0.2345,-0.2341,-0.2344,-0.2374,-0.2366,-0.2363,-0.2389,-0.2396,-0.2417,-0.2432,-0.2397,-0.2364,-0.2345,-0.2343,-0.2412,-0.237,-0.2397,-0.2399,-0.2401,-0.246,-0.2468,-0.2377,-0.2377,-0.2377,-0.2378,0,-0.2291,-0.2311,-0.2299,-0.2309,-0.2297,-0.2292,-0.2296,-0.2296,-0.2329,-0.2348,-0.2346,-0.2337,-0.2358,-0.2323,-0.2317,-0.2311,-0.2369,-0.2375,-0.2405,-0.2397,-0.246,-0.247,-0.2372,-0.2373,-0.2374,-0.2375,0,0,-0.2249,-0.2267,-0.2267,-0.2279,-0.2288,-0.2268,-0.2253,-0.225,-0.2257,-0.2284,-0.2327,-0.2249,-0.23,-0.2292,-0.2292,-0.2306,-0.2339,-0.2359,-0.2362,-0.2408,-0.2483,-0.2344,-0.2343,-0.2383,-0.2384,-0.2385,-0.2521,0,-0.2228,-0.2222,-0.2228,-0.2218,-0.2218,-0.2229,-0.2209,-0.2204,-0.2225,-0.2273,-0.2281,-0.2317,-0.2275,-0.2314,-0.2313,-0.235,-0.2366,-0.2304,-0.2491,-0.2496,-0.2366,-0.2347,-0.2064,-0.2147,-0.2531,-0.2533,-0.2534,0,-0.2181,-0.2189,-0.2182,-0.2196,-0.2192,-0.2191,-0.2178,-0.216,-0.2204,-0.224,-0.2297,-0.236,-0.2389,-0.2377,-0.243,-0.242,-0.2443,-0.2459,-0.2466,-0.2366,-0.2373,-0.2217,-0.2151,-0.2551,-0.255,-0.2549,-0.2547,0,-0.2146,-0.2157,-0.2155,-0.2154,-0.216,-0.2164,-0.2164,-0.2167,-0.2143,-0.2267,-0.2329,-0.2398,-0.2487,-0.2515,-0.2546,-0.2525,-0.2637,-0.2611,-0.2503,-0.2496,-0.23,-0.2271,-0.2642,-0.2642,-0.2642,-0.2642,-0.2641,0,-0.2122,-0.2114,-0.2149,-0.215,-0.2121,-0.2142,-0.2098,-0.2138,-0.2184,-0.22,-0.2336,-0.2402,-0.2536,-0.2623,-0.2613,-0.2594,-0.2695,-0.2495,-0.251,-0.2267,-0.2236,-0.2622,-0.2618,-0.2647,-0.2646,-0.2645,-0.2644,0,-0.2061,-0.21,-0.2093,-0.2118,-0.2115,-0.209,-0.205,-0.2028,-0.2112,-0.2173,-0.2247,-0.2448,-0.2553,-0.264,-0.273,-0.2672,-0.2667,-0.2634,-0.2348,-0.2321,-0.2486,-0.2478,-0.2519,-0.2515,-0.2512,-0.2509,-0.2507,0,-0.2027,-0.2024,-0.2042,-0.2026,-0.2043,-0.1987,-0.1956,-0.1995,-0.198,-0.2162,-0.2222,-0.2418,-0.248,-0.2572,-0.2496,-0.2469,-0.2603,-0.2251,-0.2088,-0.2458,-0.2469,-0.2466,-0.2462,-0.183,-0.1823,-0.1816,-0.1811,0,-0.1939,-0.1957,-0.1955,-0.1934,-0.1929,-0.1845,-0.1835,-0.1821,-0.1903,-0.1977,-0.2135,-0.2229,-0.2301,-0.2154,-0.2148,-0.2091,-0.222,-0.2114,-0.2608,-0.1878,-0.181,-0.1821,-0.184,-0.1755,-0.176,-0.1765,-0.1768,-0.177,-0.186,-0.1842,-0.1859,-0.1807,-0.1799,-0.1756,-0.1667,-0.169,-0.169,-0.1781,-0.1929,-0.1943,-0.1958,-0.1727,-0.1675,-0.1646,-0.1783,-0.1723,-0.1743,-0.1769,-0.1636,-0.1563,-0.144,-0.1444,-0.1447,-0.145,-0.1452,0,-0.1732,-0.1735,-0.1709,-0.167,-0.1598,-0.1636,-0.1596,-0.1509,-0.1501,-0.1553,-0.1585,-0.1409,-0.125,-0.13,-0.1089,-0.1075,-0.1075,-0.1096,-0.1069,-0.1122,-0.117,-0.1009,-0.0646,-0.0645,-0.0643,-0.0642,0,0,-0.1676,-0.1618,-0.1605,-0.1465,-0.1437,-0.1336,-0.1305,-0.1272,-0.1231,-0.1187,-0.1109,-0.11,-0.115,-0.0844,-0.0801,-0.0691,-0.0914,-0.066,-0.1286,-0.1299,-0.1345,-0.1489,-0.1293,0,0,0,0,0]},{"header":{"parameterUnit":"m.s-1","parameterCategory":2,"la1":30.2991,"la2":30.254,"lo1":-89.0895,"lo2":-89.0444,"dy":0.0017,"dx":0.0017,"nx":28,"ny":28,"refTime":"2023-09-26T03:00:00:Z","depth":"2","parameterNumber":3,"parameterNumberName":"V-component_of_CURRENTS"},"data":[0,0,0,0,0,0,0,0,0,0,0,0,0,0,0,0,0,0,0,0,0,0,0,0,0,0,0,0,0,0,0,0,0,0,0,0,0,0,0,0,0,0,0,0,0,0,0,0,0,0,0,0,0,0,0,0,0,0,-0.0258,-0.0257,0,-0.0157,-0.0155,-0.0154,-0.009,-0.009,-0.0089,-0.0089,0.0068,0.0072,0.0076,0,0,0,0,0,0,0,0,0,0,0,0,0,-0.0304,-0.0304,-0.0258,-0.0257,-0.0256,-0.0157,-0.0155,-0.0154,-0.009,-0.009,-0.0089,-0.0089,0.0067,0.0072,0.0077,0,0,0,0,0,0,0,0,0,0,0,0,0,-0.0249,-0.0304,-0.0259,-0.0214,-0.021,-0.0157,-0.0155,-0.0153,-0.009,-0.009,-0.0089,-0.0089,0.0065,0.0071,0.0077,0.0111,0,0,0.0096,0.0099,0,0,0,0,0,0,0,0,-0.0253,-0.0247,-0.0222,-0.0217,-0.0212,-0.0138,-0.0114,-0.0063,-0.009,-0.0133,-0.0089,-0.0089,0.0003,0.0014,0.0036,0.0118,0.0125,0.0097,0.01,0.0103,0.0105,0,0,0,0,0,0,0,-0.0256,-0.0251,-0.0215,-0.0221,-0.0215,-0.0168,-0.016,-0.0103,-0.0064,-0.0129,-0.0125,-0.0117,0.0006,0.0029,0.004,0.0128,0.0096,0.0102,0.0106,0.0108,0.0268,0.0268,0,0,0,0,0,0,-0.0279,-0.0255,-0.0219,-0.0213,-0.0235,-0.0168,-0.0159,-0.016,-0.0066,-0.0053,-0.0118,-0.0115,0.0019,0.0033,0.0046,0.0145,0.0103,0.0109,0.0112,0.0267,0.0268,0.0269,0,0,0,0,0,0,-0.0281,-0.0277,-0.0223,-0.0233,-0.0223,-0.0168,-0.0169,-0.0158,-0.0138,-0.0059,-0.0044,-0.0109,0.002,0.0037,0.0097,0.0149,0.0111,0.0117,0.0267,0.0267,0.0268,0.0309,0,0,0,0,0,0,-0.0283,-0.0279,-0.0287,-0.0235,-0.0224,-0.018,-0.0169,-0.0156,-0.0135,-0.013,-0.0046,-0.0031,0.0021,0.0087,0.0103,0.0157,0.0122,0.0266,0.0267,0.0268,0.0306,0.0311,0.0314,0,0,0,0,0,-0.0285,-0.0291,-0.0288,-0.0284,-0.0237,-0.018,-0.0168,-0.0127,-0.0135,-0.0111,-0.0069,-0.0034,0.0106,0.0093,0.0111,0.0168,0.0265,0.0267,0.0268,0.0305,0.031,0.0314,0,0,0,0,0,0,-0.0318,-0.0284,-0.028,-0.0278,-0.0231,-0.017,-0.0157,-0.0135,-0.0085,-0.0091,-0.0025,-0.0006,0.0073,0.0096,0.008,0.0211,0.0191,0.0196,0.0213,0.0218,0.0222,0.0214,0.0127,0,0,0,0,0,-0.0332,-0.033,-0.0281,-0.0282,-0.0264,-0.0218,-0.0195,-0.0165,-0.0116,-0.0095,-0.0041,0.0015,0.0093,0.0132,0.0195,0.026,0.0258,0.0304,0.0308,0.0311,0.0313,0.0347,0.0355,0.0273,0.0273,0.0273,0,0,-0.0341,-0.0331,-0.0325,-0.0288,-0.0259,-0.0204,-0.0202,-0.0169,-0.0107,-0.0086,-0.0007,0.0032,0.011,0.0198,0.0234,0.0224,0.0328,0.0313,0.0316,0.0316,0.035,0.0358,0.0365,0.0274,0.0274,0.0273,0,0,-0.0358,-0.0355,-0.0353,-0.0308,-0.0268,-0.0216,-0.021,-0.0152,-0.011,-0.0042,0.0001,0.006,0.0155,0.0237,0.0289,0.0344,0.0348,0.0355,0.038,0.0413,0.042,0.0427,0.0413,0.0418,0.0358,0.0358,0.0358,0,-0.038,-0.0367,-0.0339,-0.0313,-0.0263,-0.0221,-0.017,-0.0111,-0.0037,-0.001,-0.0015,0.0119,0.0189,0.0315,0.0343,0.0362,0.0347,0.0363,0.0419,0.0426,0.0432,0.0417,0.0422,0.036,0.036,0.036,0.036,0,-0.0363,-0.0357,-0.035,-0.0291,-0.0222,-0.0184,-0.0084,-0.0042,-0.0006,0.0042,0.0131,0.0209,0.0279,0.0326,0.0364,0.0452,0.0414,0.0422,0.041,0.0443,0.0424,0.0429,0.0363,0.0362,0.0362,0.0361,0,0,-0.0415,-0.0356,-0.0356,-0.0323,-0.0209,-0.0153,-0.0049,0.005,0.0074,0.0155,0.0202,0.0351,0.0339,0.0394,0.0443,0.0488,0.053,0.0467,0.0468,0.0457,0.0555,0.0575,0.0581,0.0536,0.0538,0.0539,0.0517,0,-0.042,-0.0386,-0.0321,-0.0239,-0.0199,-0.0101,-0.0014,0.0083,0.0141,0.019,0.0282,0.0338,0.0387,0.0395,0.0462,0.0505,0.0546,0.0532,0.0522,0.0521,0.0539,0.059,0.0559,0.0542,0.0521,0.0522,0.0523,0,-0.042,-0.0395,-0.034,-0.024,-0.0211,-0.0145,-0.0021,0.0066,0.016,0.0185,0.0254,0.0296,0.0401,0.0414,0.0522,0.0497,0.0532,0.0564,0.0564,0.0575,0.0552,0.051,0.0551,0.053,0.0529,0.0529,0.0528,0,-0.0477,-0.0398,-0.0361,-0.0318,-0.0197,-0.0157,-0.0075,0.0033,0.0075,0.0161,0.015,0.0279,0.0296,0.0395,0.046,0.0484,0.0531,0.0575,0.0629,0.0627,0.0599,0.0594,0.0651,0.0651,0.0651,0.0651,0.0652,0,-0.0505,-0.0472,-0.0406,-0.0392,-0.0338,-0.0214,-0.0169,-0.0094,-0.0024,-0.0008,0.012,0.012,0.0285,0.0331,0.0429,0.0521,0.0505,0.0643,0.0642,0.0609,0.0605,0.0596,0.0589,0.0651,0.0651,0.0651,0.0651,0,-0.0566,-0.0534,-0.0501,-0.0416,-0.0383,-0.0343,-0.0242,-0.0236,-0.0158,-0.0138,-0.0122,-0.0022,0.0068,0.0212,0.0336,0.0448,0.0553,0.0581,0.0509,0.0504,0.0638,0.0634,0.0689,0.069,0.069,0.0691,0.0692,0,-0.0593,-0.0597,-0.0549,-0.0543,-0.0513,-0.0446,-0.0429,-0.0326,-0.0315,-0.0242,-0.0257,-0.0168,-0.0099,0.0096,0.0312,0.0503,0.0521,0.0573,0.0674,0.0658,0.065,0.0645,0.064,0.0624,0.0624,0.0624,0.0624,0,-0.0637,-0.0648,-0.0635,-0.0643,-0.0639,-0.06,-0.0558,-0.0577,-0.0478,-0.0463,-0.0447,-0.0387,-0.0157,0.0065,0.0328,0.0443,0.0564,0.0585,0.0574,0.0636,0.0601,0.0592,0.0589,0.0624,0.0624,0.0624,0.0624,0.0624,-0.0683,-0.0709,-0.0731,-0.0719,-0.073,-0.0749,-0.0739,-0.0724,-0.0718,-0.064,-0.0578,-0.0409,-0.0189,0.0248,0.0376,0.0553,0.0605,0.0675,0.0674,0.0672,0.0685,0.0656,0.0688,0.0688,0.0689,0.0689,0.0689,0,-0.0722,-0.0759,-0.0781,-0.0796,-0.0827,-0.0804,-0.0816,-0.0807,-0.0827,-0.0684,-0.0591,-0.0312,-0.0035,0.0208,0.049,0.064,0.0626,0.0657,0.0616,0.0616,0.0617,0.0625,0.0612,0.0612,0.0612,0.0612,0,0,-0.0751,-0.0802,-0.0817,-0.0867,-0.0882,-0.0923,-0.0941,-0.0939,-0.0831,-0.0717,-0.0512,-0.0225,0.0049,0.0238,0.0394,0.0513,0.0524,0.0517,0.0569,0.0501,0.0499,0.0623,0.0637,0,0,0,0,0]}],[{"header":{"parameterUnit":"m.s-1","parameterCategory":2,"la1":30.2991,"la2":30.254,"lo1":-89.0895,"lo2":-89.0444,"dy":0.0017,"dx":0.0017,"nx":28,"ny":28,"refTime":"2023-09-26T03:00:00:Z","depth":"4","parameterNumber":2,"parameterNumberName":"U-component_of_CURRENTS"},"data":[0,0,0,0,0,0,0,0,0,0,0,0,0,0,0,0,0,0,0,0,0,0,0,0,0,0,0,0,0,0,0,0,0,0,0,0,0,0,0,0,0,0,0,0,0,0,0,0,0,0,0,0,0,0,0,0,0,0,-0.0663,-0.0663,0,-0.0705,-0.0706,-0.0707,-0.0744,-0.0744,-0.0744,-0.0744,-0.0851,-0.0853,-0.0856,0,0,0,0,0,0,0,0,0,0,0,0,0,-0.0611,-0.0612,-0.0663,-0.0663,-0.0663,-0.0705,-0.0706,-0.0707,-0.0744,-0.0744,-0.0744,-0.0744,-0.085,-0.0853,-0.0856,0,0,0,0,0,0,0,0,0,0,0,0,0,-0.0646,-0.0613,-0.0663,-0.0683,-0.0685,-0.0705,-0.0706,-0.0708,-0.0744,-0.0744,-0.0744,-0.0744,-0.0849,-0.0853,-0.0857,-0.0883,0,0,-0.087,-0.0872,0,0,0,0,0,0,0,0,-0.0644,-0.0648,-0.068,-0.0682,-0.0684,-0.0715,-0.0727,-0.0768,-0.0744,-0.0726,-0.0744,-0.0744,-0.0808,-0.0816,-0.0829,-0.0888,-0.0893,-0.087,-0.0873,-0.0875,-0.0876,0,0,0,0,0,0,0,-0.0642,-0.0647,-0.0684,-0.068,-0.0682,-0.0689,-0.0694,-0.0735,-0.0772,-0.0728,-0.0729,-0.0727,-0.0811,-0.0825,-0.0832,-0.0894,-0.087,-0.0874,-0.0877,-0.0878,-0.0998,-0.0998,0,0,0,0,0,0,-0.0628,-0.0645,-0.0683,-0.0685,-0.0658,-0.0689,-0.0696,-0.0709,-0.077,-0.0777,-0.0727,-0.0728,-0.0818,-0.0827,-0.0836,-0.0896,-0.0875,-0.0879,-0.0881,-0.0997,-0.0998,-0.0998,0,0,0,0,0,0,-0.0627,-0.0631,-0.0681,-0.0661,-0.0667,-0.069,-0.0704,-0.071,-0.0754,-0.0767,-0.0777,-0.0768,-0.0818,-0.083,-0.0881,-0.0899,-0.0881,-0.0885,-0.0996,-0.0997,-0.0998,-0.0999,0,0,0,0,0,0,-0.0625,-0.0631,-0.0644,-0.0661,-0.0668,-0.07,-0.0704,-0.071,-0.0748,-0.0752,-0.0806,-0.0814,-0.0819,-0.0875,-0.0886,-0.0905,-0.0888,-0.0996,-0.0997,-0.0998,-0.0998,-0.1,-0.1001,0,0,0,0,0,-0.0624,-0.0638,-0.0645,-0.0649,-0.0682,-0.07,-0.0706,-0.0724,-0.075,-0.0767,-0.0801,-0.0814,-0.0889,-0.0879,-0.0892,-0.0912,-0.0995,-0.0996,-0.0998,-0.0998,-0.1,-0.1001,0,0,0,0,0,0,-0.061,-0.0643,-0.0651,-0.0672,-0.0686,-0.0705,-0.072,-0.0746,-0.0789,-0.0802,-0.0829,-0.0839,-0.0881,-0.0904,-0.0892,-0.0948,-0.0942,-0.0946,-0.0938,-0.094,-0.0942,-0.0954,-0.0891,0,0,0,0,0,-0.0614,-0.064,-0.066,-0.0673,-0.0687,-0.0716,-0.0731,-0.0747,-0.0778,-0.08,-0.0822,-0.0858,-0.0893,-0.0923,-0.0941,-0.0992,-0.0999,-0.101,-0.1012,-0.1013,-0.1031,-0.1033,-0.1036,-0.1003,-0.1003,-0.1003,0,0,-0.0605,-0.0628,-0.064,-0.0673,-0.0691,-0.0717,-0.0727,-0.0756,-0.0789,-0.0805,-0.0852,-0.0862,-0.0904,-0.0937,-0.096,-0.0965,-0.1028,-0.1015,-0.1015,-0.1033,-0.1034,-0.1037,-0.104,-0.1004,-0.1004,-0.1004,0,0,-0.0602,-0.0631,-0.0655,-0.0678,-0.0708,-0.0728,-0.0746,-0.0774,-0.0803,-0.0851,-0.0857,-0.0881,-0.0944,-0.0955,-0.0982,-0.1013,-0.1024,-0.1022,-0.1057,-0.1058,-0.1061,-0.1063,-0.1079,-0.1083,-0.1035,-0.1035,-0.1035,0,-0.0595,-0.0623,-0.0659,-0.0689,-0.0709,-0.0741,-0.077,-0.0806,-0.0841,-0.0869,-0.0869,-0.0934,-0.0955,-0.101,-0.1011,-0.1018,-0.1025,-0.1045,-0.1059,-0.1062,-0.1064,-0.108,-0.1084,-0.1036,-0.1035,-0.1035,-0.1035,0,-0.0605,-0.0635,-0.065,-0.0704,-0.0737,-0.0759,-0.081,-0.0845,-0.0886,-0.0911,-0.0962,-0.0973,-0.1014,-0.1018,-0.1036,-0.1065,-0.1066,-0.1047,-0.1052,-0.1068,-0.1084,-0.1088,-0.1036,-0.1036,-0.1036,-0.1036,0,0,-0.0574,-0.0645,-0.0655,-0.0683,-0.0748,-0.0776,-0.0844,-0.0904,-0.096,-0.0981,-0.1035,-0.1072,-0.1065,-0.1094,-0.1093,-0.1103,-0.1118,-0.1093,-0.1092,-0.1105,-0.1135,-0.108,-0.108,-0.1098,-0.1098,-0.1099,-0.114,0,-0.0569,-0.062,-0.0668,-0.0721,-0.0747,-0.0815,-0.0881,-0.0948,-0.0998,-0.1047,-0.1077,-0.1114,-0.1102,-0.1115,-0.1122,-0.1115,-0.113,-0.111,-0.1123,-0.1124,-0.1069,-0.1083,-0.1101,-0.1143,-0.1144,-0.1145,-0.1145,0,-0.0562,-0.0599,-0.065,-0.0739,-0.0765,-0.0807,-0.092,-0.0986,-0.1075,-0.1115,-0.1152,-0.1164,-0.1192,-0.1165,-0.1182,-0.117,-0.1163,-0.1155,-0.1156,-0.1111,-0.1077,-0.1125,-0.1153,-0.1152,-0.1152,-0.1151,-0.1151,0,-0.0517,-0.0589,-0.0631,-0.0657,-0.0765,-0.0816,-0.0884,-0.0994,-0.1068,-0.1142,-0.1179,-0.1211,-0.1226,-0.1222,-0.1211,-0.12,-0.1219,-0.1195,-0.1146,-0.1143,-0.118,-0.1177,-0.1209,-0.1209,-0.1209,-0.1209,-0.1209,0,-0.0485,-0.0521,-0.0608,-0.0637,-0.0702,-0.0796,-0.0898,-0.0967,-0.1078,-0.1157,-0.1196,-0.1236,-0.1239,-0.1249,-0.1233,-0.1204,-0.1235,-0.1164,-0.1149,-0.118,-0.1177,-0.1183,-0.1179,-0.121,-0.121,-0.121,-0.1209,0,-0.0419,-0.0484,-0.0532,-0.0641,-0.068,-0.0729,-0.0893,-0.0976,-0.1073,-0.1167,-0.1189,-0.1258,-0.1279,-0.1279,-0.1276,-0.1226,-0.1206,-0.1188,-0.1242,-0.1228,-0.113,-0.1126,-0.1145,-0.1144,-0.1142,-0.1141,-0.114,0,-0.0391,-0.0405,-0.0515,-0.0556,-0.06,-0.0703,-0.0798,-0.0947,-0.1033,-0.1177,-0.1208,-0.1263,-0.1296,-0.1252,-0.1253,-0.1226,-0.1204,-0.1181,-0.1142,-0.1139,-0.1123,-0.1122,-0.112,-0.1138,-0.1138,-0.1137,-0.1137,0,-0.0325,-0.0366,-0.0399,-0.048,-0.0566,-0.0705,-0.0831,-0.0882,-0.1067,-0.1137,-0.1203,-0.1213,-0.1241,-0.1229,-0.121,-0.1186,-0.1185,-0.1167,-0.1169,-0.1132,-0.1131,-0.1116,-0.1115,-0.1132,-0.1133,-0.1133,-0.1134,0,-0.027,-0.027,-0.0333,-0.0392,-0.0523,-0.069,-0.0765,-0.0887,-0.0998,-0.1133,-0.1147,-0.1203,-0.1249,-0.1211,-0.1196,-0.1165,-0.1146,-0.1088,-0.1094,-0.1099,-0.106,-0.1049,-0.1022,0,0,0,0,0,-0.0231,-0.0243,-0.0266,-0.0383,-0.0516,-0.0629,-0.0801,-0.0887,-0.1022,-0.1046,-0.1103,-0.1129,-0.1127,-0.1148,-0.1105,-0.117,-0.1144,-0.1113,-0.1079,-0.1106,-0.1111,-0.1065,0,0,0,0,0,0,-0.0219,-0.0238,-0.0235,-0.0374,-0.0468,-0.0667,-0.0793,-0.0881,-0.091,-0.1,-0.1004,-0.1053,-0.1063,-0.1134,-0.1079,-0.1083,-0.1037,-0.1141,-0.1138,-0.1103,-0.1108,-0.1112,-0.1067,0,0,0,0,0]},{"header":{"parameterUnit":"m.s-1","parameterCategory":2,"la1":30.2991,"la2":30.254,"lo1":-89.0895,"lo2":-89.0444,"dy":0.0017,"dx":0.0017,"nx":28,"ny":28,"refTime":"2023-09-26T03:00:00:Z","depth":"4","parameterNumber":3,"parameterNumberName":"V-component_of_CURRENTS"},"data":[0,0,0,0,0,0,0,0,0,0,0,0,0,0,0,0,0,0,0,0,0,0,0,0,0,0,0,0,0,0,0,0,0,0,0,0,0,0,0,0,0,0,0,0,0,0,0,0,0,0,0,0,0,0,0,0,0,0,-0.0287,-0.0287,0,-0.0299,-0.03,-0.03,-0.0309,-0.0309,-0.0309,-0.0309,-0.0263,-0.0262,-0.0261,0,0,0,0,0,0,0,0,0,0,0,0,0,-0.0231,-0.0232,-0.0287,-0.0287,-0.0287,-0.0299,-0.03,-0.03,-0.0309,-0.0309,-0.0309,-0.0309,-0.0263,-0.0262,-0.0261,0,0,0,0,0,0,0,0,0,0,0,0,0,-0.0252,-0.0233,-0.0287,-0.0292,-0.0293,-0.0299,-0.03,-0.03,-0.0309,-0.0309,-0.0309,-0.0309,-0.0264,-0.0262,-0.026,-0.0251,0,0,-0.0255,-0.0254,0,0,0,0,0,0,0,0,-0.0251,-0.0254,-0.0292,-0.0292,-0.0292,-0.0301,-0.0263,-0.028,-0.0309,-0.0305,-0.0309,-0.0309,-0.0269,-0.0267,-0.0273,-0.0249,-0.0247,-0.0255,-0.0254,-0.0253,-0.0252,0,0,0,0,0,0,0,-0.0249,-0.0253,-0.0294,-0.0291,-0.0292,-0.0279,-0.0283,-0.0266,-0.0288,-0.0305,-0.0306,-0.0304,-0.0269,-0.0275,-0.0272,-0.0246,-0.0255,-0.0253,-0.0252,-0.0252,-0.0217,-0.0217,0,0,0,0,0,0,-0.0247,-0.0253,-0.0293,-0.0294,-0.0269,-0.028,-0.0284,-0.03,-0.0289,-0.0287,-0.0304,-0.0305,-0.0278,-0.0274,-0.027,-0.0238,-0.0253,-0.0251,-0.025,-0.0216,-0.0217,-0.0217,0,0,0,0,0,0,-0.0246,-0.0251,-0.0293,-0.0271,-0.0275,-0.0282,-0.0299,-0.03,-0.0307,-0.0289,-0.0286,-0.031,-0.0277,-0.0272,-0.0259,-0.0237,-0.0251,-0.0249,-0.0216,-0.0216,-0.0217,-0.0187,0,0,0,0,0,0,-0.0245,-0.0251,-0.0263,-0.0271,-0.0276,-0.0302,-0.0299,-0.03,-0.0306,-0.0306,-0.0293,-0.0288,-0.0277,-0.0261,-0.0257,-0.0235,-0.0248,-0.0216,-0.0216,-0.0217,-0.0188,-0.0186,-0.0185,0,0,0,0,0,-0.0243,-0.0263,-0.0264,-0.0268,-0.0292,-0.0303,-0.0305,-0.0309,-0.0306,-0.0314,-0.0302,-0.0289,-0.026,-0.026,-0.0255,-0.0232,-0.0216,-0.0216,-0.0217,-0.0189,-0.0187,-0.0185,0,0,0,0,0,0,-0.0249,-0.0266,-0.0267,-0.0293,-0.0297,-0.0304,-0.0312,-0.031,-0.0309,-0.0308,-0.0289,-0.0284,-0.0267,-0.026,-0.0261,-0.0226,-0.0236,-0.0235,-0.0217,-0.0215,-0.0213,-0.0187,-0.0246,0,0,0,0,0,-0.0253,-0.0274,-0.0281,-0.0302,-0.0304,-0.0306,-0.0311,-0.0313,-0.0311,-0.0312,-0.0302,-0.0287,-0.0264,-0.0249,-0.0241,-0.0216,-0.0183,-0.0201,-0.02,-0.0198,-0.0176,-0.0121,-0.0111,-0.0218,-0.0218,-0.0218,0,0,-0.0263,-0.0273,-0.0286,-0.0304,-0.0308,-0.0312,-0.031,-0.032,-0.0312,-0.0304,-0.0297,-0.0287,-0.0261,-0.0238,-0.0228,-0.0226,-0.0151,-0.0198,-0.0197,-0.0175,-0.012,-0.0109,-0.0099,-0.0218,-0.0218,-0.0218,0,0,-0.0284,-0.0299,-0.0317,-0.032,-0.0325,-0.0323,-0.0325,-0.0332,-0.0323,-0.0316,-0.0301,-0.0269,-0.0261,-0.0219,-0.0197,-0.018,-0.0153,-0.0195,-0.0149,-0.0097,-0.0086,-0.0077,-0.0017,-0.0003,-0.0183,-0.0183,-0.0183,0,-0.0289,-0.0317,-0.0322,-0.0331,-0.0332,-0.0327,-0.0335,-0.0321,-0.0321,-0.0295,-0.0314,-0.026,-0.0239,-0.0167,-0.0161,-0.0169,-0.0144,-0.0154,-0.0091,-0.0081,-0.0072,-0.0013,0.0003,-0.0182,-0.0182,-0.0182,-0.0182,0,-0.0317,-0.0334,-0.0343,-0.0352,-0.0352,-0.0363,-0.0341,-0.0327,-0.0317,-0.0295,-0.0245,-0.0218,-0.0177,-0.0167,-0.0153,-0.0075,-0.008,-0.0101,-0.0088,-0.0058,0.0001,0.0017,-0.018,-0.018,-0.0181,-0.0181,0,0,-0.0335,-0.036,-0.0362,-0.0366,-0.0365,-0.0367,-0.0336,-0.0299,-0.0264,-0.0246,-0.0199,-0.0136,-0.0118,-0.0092,-0.007,-0.001,0.0082,-0.0026,-0.0023,0.0049,0.0203,0.0146,0.0158,0.0063,0.0066,0.0068,0.022,0,-0.0351,-0.038,-0.0382,-0.0393,-0.04,-0.0374,-0.0343,-0.03,-0.0265,-0.022,-0.0147,-0.0111,-0.009,-0.0075,-0.0005,0.0045,0.0124,0.0044,0.0151,0.0155,0.0114,0.0175,0.0076,0.0232,0.0235,0.0238,0.024,0,-0.0367,-0.0385,-0.041,-0.0403,-0.0402,-0.0401,-0.0344,-0.0315,-0.0225,-0.0196,-0.0125,-0.0092,0.0015,0.0,0.0161,0.01,0.0168,0.0214,0.022,0.0173,0.0129,0.0194,0.0269,0.0267,0.0265,0.0263,0.0261,0,-0.0373,-0.0395,-0.0419,-0.0422,-0.0414,-0.04,-0.0381,-0.0305,-0.0268,-0.0182,-0.0157,-0.004,0.0006,0.011,0.0215,0.0187,0.0373,0.0342,0.0373,0.037,0.0362,0.035,0.0476,0.0476,0.0475,0.0475,0.0475,0,-0.0379,-0.0395,-0.0427,-0.0438,-0.0437,-0.0418,-0.0385,-0.0341,-0.0279,-0.0235,-0.0152,-0.0099,0.0032,0.0142,0.0235,0.0358,0.04,0.041,0.0413,0.0368,0.0355,0.0374,0.036,0.0481,0.0479,0.0478,0.0477,0,-0.0372,-0.0401,-0.0429,-0.0444,-0.0444,-0.0441,-0.0413,-0.0378,-0.0321,-0.0268,-0.0247,-0.0123,0.0016,0.0155,0.0329,0.0376,0.0497,0.0533,0.0499,0.0492,0.0458,0.0444,0.0589,0.0589,0.0588,0.0588,0.0587,0,-0.0372,-0.039,-0.044,-0.0455,-0.0467,-0.0459,-0.0442,-0.0401,-0.0376,-0.0281,-0.0263,-0.0121,-0.0029,0.0198,0.0328,0.0519,0.0528,0.059,0.0519,0.0486,0.0474,0.046,0.0447,0.0587,0.0587,0.0586,0.0586,0,-0.0366,-0.0396,-0.042,-0.046,-0.0474,-0.048,-0.0469,-0.0462,-0.0406,-0.0358,-0.0262,-0.0143,0.0016,0.0184,0.0335,0.0463,0.0541,0.0585,0.0586,0.0521,0.0485,0.047,0.0458,0.0585,0.0585,0.0585,0.0585,0,-0.0363,-0.0387,-0.0431,-0.0453,-0.048,-0.0506,-0.0495,-0.0464,-0.0436,-0.0351,-0.0314,-0.0138,-0.0024,0.0158,0.0297,0.0414,0.0426,0.0433,0.0442,0.0446,0.0335,0.0264,0.0327,0,0,0,0,0,-0.0355,-0.0386,-0.0415,-0.0463,-0.0487,-0.0513,-0.0511,-0.0497,-0.0459,-0.0402,-0.0362,-0.0216,-0.0009,0.0098,0.0208,0.027,0.0435,0.0396,0.0445,0.0576,0.0578,0.0464,0,0,0,0,0,0,-0.0358,-0.0397,-0.0417,-0.0459,-0.0494,-0.053,-0.0543,-0.0521,-0.0485,-0.0425,-0.0301,-0.0225,-0.0007,-0.0069,0.0202,0.024,0.0274,0.0509,0.051,0.0575,0.0577,0.0578,0.0462,0,0,0,0,0]}]]